Location: downtown San Diego
(32.7310°N, 117.1990°W)
Time: 17:40:07
(UTC-07:00)

BREEZE-M R/B - Pass Details

Date: 14 June 2018
Orbit: 311 x 4585 km, 49.7° (Epoch: 24 June)

Event Time Altitude Azimuth Distance (km) Brightness Sun altitude
Rises 21:56:48 0° 318° (NW) 2,450 7.8 -20.5°
Reaches altitude 10° 21:59:17 10° 331° (NNW) 1,338 5.9 -20.8°
Enters shadow 22:01:08 25° 10° (N) 705 3.8 -21.1°
